Starlink 32949

operational
NORAD ID: 63145 Int'l Des: 2025-043 Owner: SPXS Country: US Constellation: starlink
LEOCIRCULAR

About Starlink 32949

Description loading...

Live Position

Loading 3D Globe...

Upcoming Passes

Altitude History

Altitude vs Time

uPlot chart will show altitude changes over time

Two-Line Element Set

1 63145U 25043P 25258.35273885 .00049383 00000-0 17902-2 0 9994
2 63145 43.0035 286.7123 0002180 275.6112 84.4491 15.27614388 31111
Epoch: Sep 15, 2025 • Age: 16 hours

Current Status

Altitude 482.3 km
Velocity 7.63 km/s
Sub-Earth Point 0.19°N, 74.36°W
Launch Date Mar 3, 2025
Age 0.5 years
Type internet

Technical Details

Classification Payload
Mass 730.00 kg
Dry Mass 700.00 kg
Total Mass 730.00 kg
Length 0.30 m
Diameter 4.10 m
Span 29.00 m
Shape Box + pan
Manufacturer SPXS
Bus Type Starlink V2M
Phase Status In Orbit
Owner/State SPXS/US

Large Constellations

Loading constellations...